Location: *
(46.1006°N, 1.8394°E)
Time: 21:32:12
(UTC+00:00)

Cosmos 2227 Rocket - Pass Details

Date: 20 September 2019
Orbit: 837 x 847 km, 71.0° (Epoch: 15 October)

Event Time Altitude Azimuth Distance (km) Brightness Sun altitude
Rises 20:14:17 0° 215° (SW) 3,383 5.4 -23.9°
Reaches altitude 10° 20:16:44 10° 219° (SW) 2,454 4.7 -24.3°
Maximum altitude 20:22:19 62° 300° (WNW) 947 2.6 -25.1°
Drops below altitude 10° 20:27:57 10° 21° (NNE) 2,476 4.7 -26.0°
Sets 20:30:27 0° 25° (NNE) 3,416 5.5 -26.3°
